SCP
0 0 0 0 0 0 0 0 0 0 0 0 0 0 0 0 0 0 0 0 0 0 0 0 0 0 0 0 0 0 0 0 0 0 0 0 0 0 0 0 0 0 0 0
0 0 0 0 0 0 0 0 0 0 0 0 0 0 0 0 0 0 0 0 0 0 0 0 0 0 0 0 0 0 0 0 0 0 0 0 0 0 0 0 0 0 0 0
0 0 0 0 0 0 0 0 0 0 0 0 0 0 0 0 0 0 0 0 0 0 0 0 0 0 0 0 0 0 0 0 0 0 0 0 0 0 0 0 0 0 0 0
0 0 0 0 0 0 0 0 0 0 0 0 0 0 0 0 0 0 0 0 0 0 0 0 0 0 0 0 0 0 0 0 0 0 0 0 0 0 0 0 0 0 0 0
0 0 0 0 0 0 0 0 0 0 0 0 0 0 0 0 0 0 0 0 0 0 0 0 0 0 0 0 0 0 0 0 0 0 0 0 0 0 0 0 0 0 0 0
0 0 0 0 0 0 0 0 0 0 0 0 0 0 0 0 0 0 0 0 0 0 0 0 0 0 0 0 0 0 0 0 0 0 0 0 0 0 0 0 0 0 0 0
0 0 0 0 0 0 0 0 0 0 0 0 0 0 0 0 0 0 0 0 0 0 0 0 0 0 0 0 0 0 0 0 0 0 0 0 0 0 0 0 0 0 0 0
0 0 0 0 0 0 0 0 0 0 0 0 0 0 0 0 0 0 0 0 0 0 0 0 0 0 0 0 0 0 0 0 0 0 0 0 0 0 0 0 0 0 0 0
0 0 0 0 0 0 0 0 0 0 0 0 0 0 0 0 0 0 0 0 0 0 0 0 0 0 0 0 0 0 0 0 0 0 0 0 0 0 0 0 0 0 0 0
0 0 0 0 0 0 0 0 0 0 0 0 0 0 0 0 0 0 0 0 0 0 0 0 0 0 0 0 0 0 0 0 0 0 0 0 0 0 0 0 0 0 0 0
0 0 0 0 0 0 0 0 0 0 0 0 0 0 0 0 0 0 0 0 0 0 0 0 0 0 0 0 0 0 0 0 0 0 0 0 0 0 0 0 0 0 0 0
0 0 0 0 0 0 0 0 0 0 0 0 0 0 0 0 0 0 0 0 0 0 0 0 0 0 0 0 0 0 0 0 0 0 0 0 0 0 0 0 0 0 0 0
0 0 0 0 0 0 0 0 0 0 0 0 0 0 0 0 0 0 0 0 0 0 0 0 0 0 0 0 0 0 0 0 0 0 0 0 0 0 0 0 0 0 0 0
0 0 0 0 0 0 0 0 0 0 0 0 0 0 0 0 0 0 0 0 0 0 0 0 0 0 0 0 0 0 0 0 0 0 0 0 0 0 0 0 0 0 0 0
0 0 0 0 0 0 0 0 0 0 0 0 0 0 0 0 0 0 0 0 0 0 0 0 0 0 0 0 0 0 0 0 0 0 0 0 0 0 0 0 0 0 0 0
0 0 0 0 0 0 0 0 0 0 0 0 0 0 0 0 0 0 0 0 0 0 0 0 0 0 0 0 0 0 0 0 0 0 0 0 0 0 0 0 0 0 0 0
0 0 0 0 0 0 0 0 0 0 0 0 0 0 0 0 0 0 0 0 0 0 0 0 0 0 0 0 0 0 0 0 0 0 0 0 0 0 0 0 0 0 0 0
0 0 0 0 0 0 0 0 0 0 0 0 0 0 0 0 0 0 0 0 0 0 0 0 0 0 0 0 0 0 0 0 0 0 0 0 0 0 0 0 0 0 0 0
0 0 0 0 0 0 0 0 0 0 0 0 0 0 0 0 0 0 0 0 0 0 0 0 0 0 0 0 0 0 0 0 0 0 0 0 0 0 0 0 0 0 0 0
0 0 0 0 0 0 0 0 0 0 0 0 0 0 0 0 0 0 0 0 0 0 0 0 0 0 0 0 0 0 0 0 0 0 0 0 0 0 0 0 0 0 0 0
0 0 0 0 0 0 0 0 0 0 0 0 0 0 0 0 0 0 0 0 0 0 0 0 0 0 0 0 0 0 0 0 0 0 0 0 0 0 0 0 0 0 0 0
0 0 0 0 0 0 0 0 0 0 0 0 0 0 0 0 0 0 0 0 0 0 0 0 0 0 0 0 0 0 0 0 0 0 0 0 0 0 0 0 0 0 0 0
0 0 0 0 0 0 0 0 0 0 0 0 0 0 0 0 0 0 0 0 0 0 0 0 0 0 0 0 0 0 0 0 0 0 0 0 0 0 0 0 0 0 0 0
0 0 0 0 0 0 0 0 0 0 0 0 0 0 0 0 0 0 0 0 0 0 0 0 0 0 0 0 0 0 0 0 0 0 0 0 0 0 0 0 0 0 0 0
0 0 0 0 0 0 0 0 0 0 0 0 0 0 0 0 0 0 0 0 0 0 0 0 0 0 0 0 0 0 0 0 0 0 0 0 0 0 0 0 0 0 0 0
0 0 0 0 0 0 0 0 0 0 0 0 0 0 0 0 0 0 0 0 0 0 0 0 0 0 0 0 0 0 0 0 0 0 0 0 0 0 0 0 0 0 0 0
0 0 0 0 0 0 0 0 0 0 0 0 0 0 0 0 0 0 0 0 0 0 0 0 0 0 0 0 0 0 0 0 0 0 0 0 0 0 0 0 0 0 0 0
Wind_Speed
6 4 2 4 6 7 9 9 9 9 9 12 7 6 6 4 3 3 4 4 3 3 3 3 3 3 3 3 3 3 3 3 3 4 3 3 4 4 4 3 4 3 4 4
4 2 2 6 8 8 9 8 10 10 13 10 6 4 4 4 4 5 5 5 4 4 3 3 3 3 3 3 3 3 2 3 4 4 4 4 4 4 4 4 4 3 4 4
4 3 4 8 8 8 6 7 7 11 11 4 4 5 5 5 5 6 6 5 5 4 4 4 3 3 3 3 3 3 3 3 4 4 4 4 5 4 4 4 4 4 4 4
2 2 6 7 0 4 6 6 7 7 6 5 6 6 5 5 6 6 5 4 4 4 4 3 3 3 3 2 2 2 3 4 4 4 4 5 4 5 5 4 4 5 5 5
2 3 9 8 3 3 5 7 5 8 9 6 3 5 5 3 2 4 4 4 3 3 3 3 3 3 2 2 2 2 3 4 4 4 4 5 5 5 5 5 5 5 5 5
2 3 7 7 2 1 2 6 3 4 6 4 2 3 5 3 3 4 3 2 2 3 3 3 3 2 2 2 3 3 4 4 4 4 4 5 5 5 5 4 5 5 5 5
5 6 10 5 1 2 2 6 3 2 3 2 3 5 5 4 4 3 3 3 2 2 2 3 2 1 2 3 4 4 4 4 4 4 4 4 4 4 4 4 4 4 5 5
4 5 10 1 3 5 6 4 3 3 3 4 5 6 5 5 4 4 4 3 2 2 3 3 2 2 3 4 4 4 4 4 4 4 4 4 4 4 4 4 4 5 5 5
8 8 3 3 5 4 2 4 4 4 4 4 5 6 5 5 4 4 3 3 2 2 3 4 3 2 3 4 4 3 4 4 4 5 4 4 4 4 4 3 3 4 4 5
5 8 6 5 5 5 4 5 5 5 4 4 5 6 5 4 4 3 3 3 2 2 3 4 4 3 3 4 3 3 3 4 4 4 4 4 4 3 3 3 3 4 4 5
6 7 6 5 6 6 6 5 5 5 4 4 5 5 4 4 4 3 3 3 2 3 3 4 4 4 4 3 2 2 3 3 4 4 4 4 4 4 4 4 5 5 4 4
8 6 5 6 4 4 5 5 5 5 4 4 4 5 4 4 3 3 3 3 3 3 4 4 4 4 4 3 2 2 3 3 3 3 3 3 4 5 7 7 9 9 9 8
7 5 5 6 5 4 4 5 4 4 4 5 4 3 3 4 3 3 3 3 3 4 4 4 4 4 4 3 3 2 3 4 3 3 3 4 4 4 5 7 8 9 10 11
5 3 5 5 5 4 4 4 3 3 3 3 3 3 2 3 3 3 3 4 3 3 4 3 4 5 4 3 3 3 3 4 4 3 3 4 4 4 4 5 6 6 8 11
4 4 6 4 4 4 3 3 3 4 4 4 3 3 2 3 4 4 4 3 3 3 3 3 4 5 4 3 3 4 3 3 3 3 3 4 4 4 4 5 5 6 5 7
4 3 3 3 4 4 3 3 4 5 4 4 4 4 3 3 3 4 3 2 3 4 4 4 5 5 4 3 4 3 3 6 5 3 3 4 4 4 4 4 5 5 5 6
2 4 3 4 5 5 4 4 4 5 4 4 5 4 3 3 3 4 4 3 3 4 5 5 5 4 3 3 3 3 3 4 6 4 3 4 4 4 4 4 5 5 5 7
4 4 4 4 4 5 5 4 4 4 4 4 4 3 3 3 4 5 5 4 4 5 5 5 5 4 3 3 3 3 3 3 3 3 4 4 4 4 4 4 5 6 6 6
3 3 3 3 3 3 4 4 4 3 3 2 2 3 4 4 4 4 4 4 4 6 6 5 7 4 4 4 4 2 3 3 3 4 4 5 5 4 4 4 5 5 6 5
3 3 3 3 3 3 3 3 3 3 3 2 2 3 4 4 4 4 4 4 4 5 5 5 5 4 4 4 5 2 3 3 4 4 3 3 4 4 4 5 5 5 5 5
3 3 3 3 3 3 3 3 2 3 3 2 2 3 4 5 4 3 3 5 5 5 5 7 4 4 4 4 5 2 3 3 3 3 4 4 4 4 4 5 5 5 5 5
3 2 3 3 3 4 3 3 2 3 3 3 3 3 4 4 4 4 4 4 5 7 5 3 3 6 6 6 2 2 3 3 3 3 3 4 4 4 4 5 5 5 5 5
3 2 3 3 3 3 3 3 3 3 3 4 4 4 4 4 3 4 5 4 4 7 5 3 6 9 8 3 2 2 3 3 3 3 3 4 4 4 4 5 5 5 5 5
2 2 3 2 2 2 4 4 4 3 4 4 4 4 4 4 3 3 4 7 8 8 4 6 9 9 7 2 2 3 3 3 4 3 3 3 3 4 4 4 5 5 5 5
2 2 2 2 2 2 3 4 4 4 4 3 4 4 3 2 3 4 4 5 7 7 4 6 9 9 4 3 3 3 3 4 4 4 3 3 4 4 4 4 4 5 5 5
2 2 2 2 2 2 3 3 3 3 3 4 4 3 3 3 3 3 3 4 5 7 5 4 4 5 3 3 3 4 4 5 5 4 4 4 4 4 4 5 5 5 4 5
2 2 2 2 2 2 2 3 3 4 4 4 4 4 4 3 3 3 4 4 4 4 4 3 3 3 3 3 4 4 4 4 4 4 4 4 4 4 4 5 5 4 4 5
Wind_Direction
258 263 213 236 237 203 205 213 222 243 247 266 271 268 274 277 282 293 297 299 297 297 300 305 313 317 321 322 326 324 318 309 302 304 305 307 307 308 306 304 294 286 282 281
286 263 246 272 259 228 228 232 238 259 269 264 274 275 280 277 271 279 282 284 288 289 291 294 296 302 309 312 314 316 309 305 311 317 318 316 313 315 315 313 305 292 287 283
273 308 339 276 245 207 209 213 203 232 251 275 283 279 276 274 266 265 269 272 271 275 277 280 282 284 284 292 305 312 312 316 320 322 323 320 318 321 316 314 314 300 291 285
273 23 249 247 191 189 212 240 222 246 267 272 267 282 280 264 254 267 277 280 279 282 286 290 289 291 292 297 301 306 314 318 321 322 317 317 320 319 316 315 312 304 299 292
181 243 275 293 267 185 205 269 233 240 265 281 308 316 297 270 248 255 264 274 278 280 287 295 293 293 298 301 305 307 308 309 311 311 310 314 315 313 311 310 310 306 300 298
170 217 251 265 290 265 124 285 280 228 258 282 2 311 290 319 316 303 306 301 297 305 309 298 295 294 289 292 299 294 295 297 300 302 301 302 303 305 305 302 301 305 306 304
211 234 263 273 317 99 165 262 306 254 261 247 222 243 284 312 316 311 310 311 310 307 298 290 294 289 281 287 284 291 299 302 304 304 299 295 300 302 303 306 308 307 306 306
182 215 255 251 129 190 236 295 297 280 268 256 263 284 298 303 309 315 320 322 318 312 308 308 298 272 276 281 291 303 304 305 306 307 305 309 308 308 307 307 308 307 310 311
196 218 255 180 214 251 282 279 279 277 279 273 278 285 297 304 303 306 308 311 314 303 309 313 305 276 274 290 303 306 308 307 307 311 309 309 305 306 309 306 303 306 308 308
251 263 264 251 267 286 278 264 269 271 277 269 270 281 291 297 302 306 307 307 308 305 304 306 309 304 285 293 300 303 305 307 310 313 314 312 304 297 297 297 299 300 298 299
258 278 303 278 256 269 280 282 285 287 277 266 264 276 277 286 292 295 299 305 299 291 293 298 307 307 304 302 302 304 303 305 311 311 308 309 305 294 294 279 286 293 293 291
242 245 234 266 282 282 278 280 282 288 293 286 259 267 276 277 279 286 292 300 300 297 297 300 304 303 304 302 294 295 303 307 305 305 303 304 307 310 307 303 308 308 308 308
249 270 252 272 289 284 273 282 286 276 273 283 282 270 272 277 279 281 288 288 286 287 292 296 300 300 305 305 294 281 282 291 294 297 299 300 303 306 311 316 314 312 313 314
258 274 277 275 281 295 289 295 300 298 292 284 286 292 288 288 289 283 281 282 284 287 290 292 294 296 300 301 295 292 290 290 293 287 289 291 292 292 294 301 309 312 313 314
266 251 255 284 309 320 323 330 327 318 317 314 309 303 300 295 292 289 290 295 299 294 291 292 293 294 300 298 297 295 293 288 285 286 287 287 289 291 292 293 294 299 306 311
288 289 284 293 298 309 321 316 303 299 302 302 305 303 297 289 290 295 296 293 292 290 289 286 285 288 293 294 296 293 288 294 300 294 291 291 291 290 289 291 292 294 298 302
291 295 298 303 300 299 294 286 282 287 292 290 291 298 306 312 312 308 304 297 283 281 282 281 285 291 293 287 283 283 287 292 299 299 289 286 286 286 285 286 289 291 291 297
251 262 264 268 280 288 293 292 287 289 287 285 295 298 296 293 291 294 300 305 307 302 294 289 292 295 288 281 276 275 278 281 284 285 286 286 288 287 287 286 288 291 295 300
286 284 287 288 285 284 289 293 293 294 295 294 290 285 284 285 288 294 303 309 307 303 305 302 301 302 289 283 292 275 279 285 289 289 288 295 300 295 290 288 289 290 294 297
322 321 317 313 315 304 294 297 299 302 299 294 294 297 299 297 297 299 299 291 280 280 295 303 302 297 292 288 296 284 280 281 285 289 290 288 290 293 293 292 291 291 292 293
320 321 321 318 316 312 301 298 299 299 303 299 285 282 287 294 296 296 298 296 297 297 299 303 307 298 291 295 298 291 285 287 289 291 293 294 295 296 298 299 298 294 292 293
311 312 311 311 311 313 314 308 297 297 304 303 296 293 297 300 302 296 277 274 295 308 313 301 299 301 309 312 304 301 298 296 294 294 293 293 294 295 297 299 298 298 297 295
305 305 305 308 305 306 317 316 307 301 298 296 294 292 289 288 288 291 297 298 300 306 313 297 304 311 321 334 320 308 303 299 295 292 289 288 288 290 293 296 296 297 299 300
315 317 314 317 323 323 322 320 318 310 301 296 292 289 290 296 295 275 276 300 309 311 311 307 314 319 331 336 319 312 305 300 297 295 292 290 288 288 289 292 295 297 298 300
320 318 323 332 329 314 309 316 320 318 315 310 307 304 294 276 277 293 297 297 305 314 314 314 319 325 334 320 312 308 305 301 299 298 293 294 294 294 295 294 294 296 299 300
322 317 311 303 297 301 311 317 316 315 316 315 314 313 312 306 296 298 303 306 307 316 319 316 317 320 320 316 312 311 309 311 315 316 307 301 298 297 297 297 297 296 295 296
332 328 325 326 325 322 317 312 309 310 312 309 310 315 317 317 317 318 317 319 320 320 318 319 321 321 323 323 321 319 317 315 314 312 310 305 301 299 299 297 297 298 297 296